KZR618 UACC-UAAA

Flight info

Callsign KZR618
Flight time 1h 19m
Altitude 35000
Route BEDK5G BEDKA T523 KRG N170 BLH L998 TULPI/N0416F270 L998 RITAB W333 ETEDA ETED1R
Aircraft A320/M-SDE1FGHIJ1RWXYZ/LB1

Departure

Time 2026-04-21 16:22
Airport Nursultan Nazarbayev International Airport (UACC)

Arrival

Time 2026-04-21 17:41
Airport Almaty International Airport (UAAA)
Time Latitude Longitude Altitude Speed Heading
2026-04-21 15:57 51.02414 71.45799 1164 ft 0 kts 224°
2026-04-21 16:12 51.02409 71.45793 1164 ft 6 kts 218°
2026-04-21 16:12 51.02328 71.45854 1164 ft 5 kts 133°
2026-04-21 16:12 51.02309 71.45890 1163 ft 3 kts 121°
2026-04-21 16:12 51.02308 71.45912 1164 ft 2 kts 83°
2026-04-21 16:13 51.02325 71.45978 1163 ft 8 kts 52°
2026-04-21 16:13 51.02359 71.46034 1164 ft 8 kts 45°
2026-04-21 16:13 51.02397 71.46100 1162 ft 7 kts 61°
2026-04-21 16:13 51.02393 71.46163 1164 ft 5 kts 117°
2026-04-21 16:14 51.02355 71.46257 1163 ft 14 kts 102°
2026-04-21 16:14 51.02400 71.46380 1163 ft 14 kts 44°
2026-04-21 16:14 51.02471 71.46490 1164 ft 15 kts 44°
2026-04-21 16:14 51.02547 71.46608 1164 ft 16 kts 45°
2026-04-21 16:15 51.02628 71.46735 1164 ft 17 kts 45°
2026-04-21 16:15 51.02715 71.46871 1164 ft 18 kts 45°
2026-04-21 16:15 51.02808 71.47016 1164 ft 19 kts 44°
2026-04-21 16:15 51.02901 71.47162 1164 ft 19 kts 44°
2026-04-21 16:16 51.02996 71.47309 1164 ft 20 kts 44°
2026-04-21 16:16 51.03095 71.47465 1164 ft 21 kts 44°
2026-04-21 16:16 51.03190 71.47613 1164 ft 16 kts 45°
2026-04-21 16:16 51.03265 71.47729 1164 ft 14 kts 44°
2026-04-21 16:17 51.03332 71.47833 1164 ft 10 kts 45°
2026-04-21 16:17 51.03376 71.47902 1164 ft 8 kts 45°
2026-04-21 16:17 51.03408 71.47959 1163 ft 6 kts 53°
2026-04-21 16:17 51.03424 71.48014 1164 ft 7 kts 73°
2026-04-21 16:18 51.03432 71.48161 1164 ft 15 kts 89°
2026-04-21 16:18 51.03406 71.48298 1163 ft 13 kts 134°
2026-04-21 16:18 51.03341 71.48304 1164 ft 9 kts 207°
2026-04-21 16:18 51.03312 71.48268 1163 ft 0 kts 221°
2026-04-21 16:21 51.03268 71.48205 1165 ft 35 kts 222°
2026-04-21 16:21 51.02913 71.47649 1167 ft 105 kts 221°
2026-04-21 16:21 51.02262 71.46638 1165 ft 156 kts 225°
2026-04-21 16:21 51.01386 71.45303 1354 ft 185 kts 223°
2026-04-21 16:22 51.00449 71.43833 1922 ft 193 kts 225°
2026-04-21 16:22 50.99528 71.42355 2823 ft 181 kts 225°
2026-04-21 16:22 50.98650 71.40962 3538 ft 180 kts 224°
2026-04-21 16:22 50.97735 71.39499 3935 ft 193 kts 224°
2026-04-21 16:23 50.96757 71.37931 4326 ft 209 kts 224°
2026-04-21 16:23 50.95580 71.36452 4807 ft 224 kts 208°
2026-04-21 16:23 50.94064 71.35609 5295 ft 240 kts 188°
2026-04-21 16:23 50.92352 71.35679 5833 ft 257 kts 168°
2026-04-21 16:24 50.90681 71.36828 6484 ft 269 kts 146°
2026-04-21 16:24 50.89378 71.38988 7260 ft 276 kts 123°
2026-04-21 16:24 50.88657 71.41826 8047 ft 282 kts 107°
2026-04-21 16:24 50.88110 71.44836 8819 ft 286 kts 107°
2026-04-21 16:25 50.87556 71.47886 9625 ft 290 kts 107°
2026-04-21 16:25 50.86953 71.50961 10277 ft 297 kts 114°
2026-04-21 16:25 50.85983 71.53938 10667 ft 313 kts 120°
2026-04-21 16:25 50.84913 71.56863 11035 ft 328 kts 128°
2026-04-21 16:26 50.83294 71.59492 11398 ft 342 kts 140°
2026-04-21 16:26 50.81460 71.62008 11789 ft 355 kts 141°
2026-04-21 16:26 50.79536 71.64501 12408 ft 359 kts 144°
2026-04-21 16:26 50.77533 71.66896 13086 ft 363 kts 145°
2026-04-21 16:27 50.75492 71.69282 13761 ft 367 kts 146°
2026-04-21 16:27 50.73408 71.71642 14352 ft 371 kts 147°
2026-04-21 16:27 50.71282 71.73979 14909 ft 375 kts 148°
2026-04-21 16:27 50.69117 71.76311 15477 ft 379 kts 148°
2026-04-21 16:28 50.66921 71.78656 16032 ft 383 kts 148°
2026-04-21 16:28 50.64703 71.81018 16575 ft 387 kts 148°
2026-04-21 16:28 50.62460 71.83409 17120 ft 391 kts 148°
2026-04-21 16:28 50.60196 71.85829 17660 ft 396 kts 148°
2026-04-21 16:29 50.57909 71.88278 18180 ft 400 kts 148°
2026-04-21 16:29 50.55602 71.90750 18630 ft 404 kts 148°
2026-04-21 16:29 50.53276 71.93241 19085 ft 407 kts 149°
2026-04-21 16:29 50.50889 71.95796 19559 ft 410 kts 149°
2026-04-21 16:30 50.48552 71.98294 20012 ft 413 kts 149°
2026-04-21 16:30 50.46133 72.00876 20471 ft 417 kts 149°
2026-04-21 16:30 50.43724 72.03442 20911 ft 420 kts 149°
2026-04-21 16:30 50.41297 72.06023 21357 ft 423 kts 149°
2026-04-21 16:31 50.38850 72.08620 21799 ft 426 kts 149°
2026-04-21 16:31 50.36387 72.11232 22233 ft 429 kts 149°
2026-04-21 16:31 50.33903 72.13861 22643 ft 432 kts 149°
2026-04-21 16:31 50.31402 72.16503 23070 ft 435 kts 149°
2026-04-21 16:32 50.28886 72.19153 23483 ft 438 kts 149°
2026-04-21 16:32 50.26349 72.21828 23829 ft 441 kts 149°
2026-04-21 16:32 50.23830 72.24579 24180 ft 444 kts 144°
2026-04-21 16:32 50.21548 72.27870 24543 ft 449 kts 135°
2026-04-21 16:33 50.19592 72.31704 24888 ft 453 kts 128°
2026-04-21 16:33 50.17754 72.35617 25221 ft 455 kts 128°
2026-04-21 16:33 50.15846 72.39665 25565 ft 457 kts 128°
2026-04-21 16:33 50.13950 72.43663 25913 ft 459 kts 129°
2026-04-21 16:34 50.12044 72.47663 26248 ft 461 kts 129°
2026-04-21 16:34 50.10126 72.51685 26588 ft 463 kts 128°
2026-04-21 16:34 50.08202 72.55719 26920 ft 465 kts 129°
2026-04-21 16:34 50.06272 72.59765 27220 ft 467 kts 128°
2026-04-21 16:35 50.04332 72.63830 27517 ft 469 kts 128°
2026-04-21 16:35 50.02383 72.67912 27817 ft 471 kts 129°
2026-04-21 16:35 50.00424 72.72007 28099 ft 473 kts 129°
2026-04-21 16:35 49.98457 72.76113 28388 ft 475 kts 129°
2026-04-21 16:36 49.96479 72.80237 28660 ft 477 kts 128°
2026-04-21 16:36 49.94496 72.84376 28940 ft 479 kts 128°
2026-04-21 16:36 49.92502 72.88525 29209 ft 480 kts 129°
2026-04-21 16:36 49.90496 72.92679 29490 ft 482 kts 129°
2026-04-21 16:37 49.88483 72.96838 29877 ft 481 kts 129°
2026-04-21 16:37 49.86477 73.00979 30235 ft 480 kts 129°
2026-04-21 16:37 49.84474 73.05109 30561 ft 479 kts 129°
2026-04-21 16:37 49.82473 73.09232 30870 ft 479 kts 129°
2026-04-21 16:38 49.80476 73.13342 31200 ft 478 kts 129°
2026-04-21 16:38 49.78475 73.17449 31524 ft 477 kts 129°
2026-04-21 16:38 49.76479 73.21538 31833 ft 477 kts 129°
2026-04-21 16:38 49.74473 73.25637 32158 ft 476 kts 129°
2026-04-21 16:39 49.72472 73.29716 32469 ft 476 kts 130°
2026-04-21 16:39 49.70306 73.33545 32777 ft 472 kts 139°
2026-04-21 16:39 49.67815 73.36788 33084 ft 467 kts 148°
2026-04-21 16:39 49.65065 73.39394 33392 ft 461 kts 157°
2026-04-21 16:40 49.62143 73.41358 33704 ft 457 kts 163°
2026-04-21 16:40 49.59184 73.43144 33990 ft 456 kts 163°
2026-04-21 16:40 49.56230 73.44927 34235 ft 456 kts 163°
2026-04-21 16:40 49.53274 73.46708 34467 ft 457 kts 163°
2026-04-21 16:41 49.50312 73.48487 34688 ft 457 kts 163°
2026-04-21 16:41 49.47347 73.50266 34862 ft 458 kts 163°
2026-04-21 16:41 49.44369 73.52052 34909 ft 460 kts 163°
2026-04-21 16:42 49.38400 73.55630 34903 ft 460 kts 163°
2026-04-21 16:42 49.32435 73.59193 34895 ft 460 kts 163°
2026-04-21 16:43 49.26459 73.62749 34898 ft 461 kts 163°
2026-04-21 16:43 49.20488 73.66300 34897 ft 461 kts 163°
2026-04-21 16:44 49.14506 73.69849 34909 ft 461 kts 163°
2026-04-21 16:44 49.08526 73.73393 34899 ft 461 kts 163°
2026-04-21 16:45 49.02542 73.76919 34901 ft 461 kts 163°
2026-04-21 16:45 48.96551 73.80444 34901 ft 461 kts 163°
2026-04-21 16:46 48.90558 73.83958 34912 ft 462 kts 163°
2026-04-21 16:46 48.84565 73.87459 34914 ft 462 kts 163°
2026-04-21 16:47 48.78571 73.90968 34920 ft 462 kts 163°
2026-04-21 16:47 48.72570 73.94477 34920 ft 462 kts 163°
2026-04-21 16:48 48.66565 73.97960 34927 ft 462 kts 163°
2026-04-21 16:48 48.60553 74.01419 34932 ft 462 kts 163°
2026-04-21 16:49 48.54538 74.04867 34937 ft 463 kts 163°
2026-04-21 16:49 48.48521 74.08314 34937 ft 463 kts 163°
2026-04-21 16:50 48.42501 74.11747 34941 ft 463 kts 163°
2026-04-21 16:50 48.36476 74.15168 34940 ft 463 kts 163°
2026-04-21 16:51 48.30443 74.18585 34941 ft 463 kts 163°
2026-04-21 16:51 48.24409 74.22003 34943 ft 464 kts 163°
2026-04-21 16:52 48.18368 74.25418 34946 ft 464 kts 163°
2026-04-21 16:52 48.13351 74.28246 34942 ft 464 kts 163°
2026-04-21 16:53 48.06295 74.32263 34948 ft 464 kts 163°
2026-04-21 16:53 48.00259 74.35729 35065 ft 467 kts 162°
2026-04-21 16:53 47.97210 74.37472 34945 ft 470 kts 163°
2026-04-21 16:54 47.94149 74.39212 34932 ft 471 kts 163°
2026-04-21 16:54 47.88017 74.42688 34935 ft 472 kts 163°
2026-04-21 16:55 47.81866 74.46170 34931 ft 473 kts 163°
2026-04-21 16:55 47.75717 74.49647 34932 ft 473 kts 163°
2026-04-21 16:56 47.69552 74.53123 34930 ft 474 kts 163°
2026-04-21 16:56 47.63385 74.56589 34938 ft 474 kts 163°
2026-04-21 16:57 47.57204 74.60045 34940 ft 475 kts 163°
2026-04-21 16:57 47.51023 74.63497 34946 ft 475 kts 163°
2026-04-21 16:58 47.44823 74.66980 34948 ft 476 kts 163°
2026-04-21 16:58 47.39632 74.69904 34945 ft 477 kts 163°
2026-04-21 16:59 47.33427 74.73382 34942 ft 478 kts 163°
2026-04-21 16:59 47.27206 74.76855 34942 ft 478 kts 163°
2026-04-21 17:00 47.20976 74.80323 34937 ft 479 kts 164°
2026-04-21 17:00 47.15794 74.83200 34929 ft 480 kts 164°
2026-04-21 17:01 47.08490 74.87253 34931 ft 480 kts 164°
2026-04-21 17:01 47.02240 74.90717 34929 ft 481 kts 164°
2026-04-21 17:02 46.95962 74.94176 34934 ft 481 kts 164°
2026-04-21 17:02 46.89690 74.97616 34932 ft 482 kts 164°
2026-04-21 17:03 46.83444 75.01244 34928 ft 485 kts 161°
2026-04-21 17:03 46.77270 75.05254 34934 ft 486 kts 160°
2026-04-21 17:04 46.71105 75.09314 34931 ft 486 kts 161°
2026-04-21 17:04 46.64902 75.13268 34926 ft 487 kts 161°
2026-04-21 17:05 46.58678 75.17164 34939 ft 487 kts 162°
2026-04-21 17:05 46.52451 75.21045 34938 ft 487 kts 162°
2026-04-21 17:06 46.46221 75.24943 34933 ft 488 kts 161°
2026-04-21 17:06 46.39992 75.28849 34931 ft 488 kts 162°
2026-04-21 17:07 46.33753 75.32744 34940 ft 489 kts 162°
2026-04-21 17:07 46.27514 75.36631 34945 ft 489 kts 162°
2026-04-21 17:08 46.21255 75.40515 34951 ft 489 kts 162°
2026-04-21 17:08 46.15006 75.44402 34945 ft 489 kts 162°
2026-04-21 17:09 46.05622 75.50266 34940 ft 491 kts 162°
2026-04-21 17:09 45.99440 75.54116 34954 ft 481 kts 159°
2026-04-21 17:10 45.93296 75.57911 34947 ft 480 kts 159°
2026-04-21 17:10 45.87145 75.61694 34940 ft 481 kts 159°
2026-04-21 17:11 45.80989 75.65486 34945 ft 482 kts 159°
2026-04-21 17:11 45.74827 75.69270 34938 ft 482 kts 159°
2026-04-21 17:12 45.68657 75.73059 34931 ft 483 kts 159°
2026-04-21 17:12 45.62485 75.76846 34920 ft 484 kts 159°
2026-04-21 17:13 45.56298 75.80624 34928 ft 484 kts 159°
2026-04-21 17:13 45.50090 75.84392 34926 ft 485 kts 160°
2026-04-21 17:14 45.43885 75.88163 34941 ft 485 kts 159°
2026-04-21 17:14 45.37671 75.91943 34923 ft 486 kts 159°
2026-04-21 17:15 45.31447 75.95713 34931 ft 487 kts 160°
2026-04-21 17:15 45.25216 75.99467 34912 ft 487 kts 160°
2026-04-21 17:16 45.18971 76.03213 34914 ft 488 kts 160°
2026-04-21 17:16 45.12699 76.06964 34913 ft 489 kts 160°
2026-04-21 17:17 45.06436 76.10724 34901 ft 489 kts 160°
2026-04-21 17:17 45.00092 76.14535 34614 ft 506 kts 160°
2026-04-21 17:18 44.96851 76.16469 34371 ft 505 kts 160°
2026-04-21 17:18 44.93642 76.18384 34125 ft 493 kts 160°
2026-04-21 17:18 44.90508 76.20252 33879 ft 489 kts 160°
2026-04-21 17:18 44.87379 76.22110 33605 ft 487 kts 160°
2026-04-21 17:19 44.84268 76.23958 33253 ft 485 kts 160°
2026-04-21 17:19 44.81169 76.25792 32846 ft 482 kts 160°
2026-04-21 17:19 44.78079 76.27623 32445 ft 479 kts 160°
2026-04-21 17:19 44.75024 76.29432 32056 ft 477 kts 160°
2026-04-21 17:20 44.71963 76.31237 31657 ft 474 kts 160°
2026-04-21 17:20 44.68921 76.33024 31286 ft 472 kts 160°
2026-04-21 17:20 44.65899 76.34802 30914 ft 470 kts 160°
2026-04-21 17:20 44.62891 76.36573 30547 ft 468 kts 160°
2026-04-21 17:21 44.59899 76.38331 30108 ft 466 kts 160°
2026-04-21 17:21 44.56917 76.40087 29572 ft 462 kts 160°
2026-04-21 17:21 44.53965 76.41827 29015 ft 458 kts 160°
2026-04-21 17:21 44.51038 76.43551 28473 ft 454 kts 159°
2026-04-21 17:22 44.49073 76.44705 28026 ft 454 kts 159°
2026-04-21 17:22 44.45215 76.46961 27126 ft 453 kts 159°
2026-04-21 17:22 44.42317 76.48652 26465 ft 448 kts 159°
2026-04-21 17:22 44.39421 76.50166 25818 ft 440 kts 166°
2026-04-21 17:23 44.36467 76.51065 25181 ft 431 kts 175°
2026-04-21 17:23 44.33495 76.51329 24571 ft 423 kts 184°
2026-04-21 17:23 44.30603 76.50980 23999 ft 414 kts 192°
2026-04-21 17:23 44.27814 76.50071 23437 ft 408 kts 200°
2026-04-21 17:24 44.25170 76.48702 22781 ft 405 kts 204°
2026-04-21 17:24 44.22521 76.47364 22149 ft 406 kts 196°
2026-04-21 17:24 44.19714 76.46922 21523 ft 407 kts 179°
2026-04-21 17:24 44.16939 76.47624 20920 ft 408 kts 165°
2026-04-21 17:25 44.14404 76.49402 20315 ft 409 kts 148°
2026-04-21 17:25 44.12339 76.52107 19761 ft 408 kts 130°
2026-04-21 17:25 44.10786 76.55382 19279 ft 402 kts 124°
2026-04-21 17:25 44.09315 76.58657 18811 ft 400 kts 124°
2026-04-21 17:26 44.07838 76.61940 18344 ft 399 kts 124°
2026-04-21 17:26 44.06363 76.65199 17821 ft 397 kts 124°
2026-04-21 17:26 44.04895 76.68424 17302 ft 391 kts 124°
2026-04-21 17:26 44.03455 76.71583 16777 ft 385 kts 124°
2026-04-21 17:27 44.02032 76.74705 16267 ft 380 kts 124°
2026-04-21 17:27 44.00619 76.77804 15756 ft 379 kts 124°
2026-04-21 17:27 43.99210 76.80893 15275 ft 378 kts 124°
2026-04-21 17:27 43.97816 76.83948 14785 ft 372 kts 125°
2026-04-21 17:28 43.96439 76.86966 14302 ft 366 kts 125°
2026-04-21 17:28 43.95085 76.89930 13830 ft 361 kts 125°
2026-04-21 17:28 43.93749 76.92848 13315 ft 356 kts 125°
2026-04-21 17:28 43.92422 76.95717 12834 ft 352 kts 128°
2026-04-21 17:29 43.90865 76.98299 12368 ft 347 kts 140°
2026-04-21 17:29 43.89022 77.00420 11914 ft 342 kts 148°
2026-04-21 17:29 43.87115 77.02378 11463 ft 342 kts 147°
2026-04-21 17:29 43.85209 77.04343 11020 ft 340 kts 147°
2026-04-21 17:30 43.83312 77.06299 10579 ft 338 kts 147°
2026-04-21 17:30 43.81444 77.08225 10150 ft 331 kts 147°
2026-04-21 17:30 43.79620 77.10108 9801 ft 322 kts 147°
2026-04-21 17:30 43.77846 77.11936 9442 ft 314 kts 147°
2026-04-21 17:31 43.76095 77.13735 9077 ft 305 kts 147°
2026-04-21 17:31 43.74412 77.15464 8712 ft 298 kts 147°
2026-04-21 17:31 43.72769 77.17155 8362 ft 290 kts 146°
2026-04-21 17:31 43.71178 77.18792 8093 ft 280 kts 146°
2026-04-21 17:32 43.70155 77.19842 7944 ft 274 kts 146°
2026-04-21 17:32 43.68133 77.21909 7611 ft 266 kts 146°
2026-04-21 17:32 43.66656 77.23420 7368 ft 263 kts 146°
2026-04-21 17:32 43.65193 77.24916 7128 ft 261 kts 145°
2026-04-21 17:33 43.63741 77.26397 6885 ft 259 kts 145°
2026-04-21 17:33 43.62292 77.27873 6652 ft 258 kts 144°
2026-04-21 17:33 43.60856 77.29337 6412 ft 255 kts 144°
2026-04-21 17:33 43.59467 77.30755 6177 ft 249 kts 144°
2026-04-21 17:34 43.58055 77.32140 5917 ft 244 kts 146°
2026-04-21 17:34 43.56666 77.33450 5675 ft 239 kts 147°
2026-04-21 17:34 43.55302 77.34721 5431 ft 235 kts 147°
2026-04-21 17:34 43.53878 77.35778 5243 ft 229 kts 165°
2026-04-21 17:35 43.52855 77.35975 5187 ft 222 kts 182°
2026-04-21 17:35 43.51407 77.35532 5187 ft 207 kts 206°
2026-04-21 17:35 43.50258 77.34398 5204 ft 204 kts 228°
2026-04-21 17:35 43.49156 77.32267 5211 ft 204 kts 236°
2026-04-21 17:36 43.48633 77.31195 5203 ft 204 kts 236°
2026-04-21 17:36 43.47840 77.29574 5200 ft 204 kts 236°
2026-04-21 17:36 43.47046 77.27955 5200 ft 204 kts 236°
2026-04-21 17:36 43.46251 77.26336 5203 ft 204 kts 236°
2026-04-21 17:37 43.45458 77.24722 5205 ft 204 kts 236°
2026-04-21 17:37 43.44661 77.23101 5077 ft 204 kts 236°
2026-04-21 17:37 43.43876 77.21504 4852 ft 197 kts 236°
2026-04-21 17:37 43.43133 77.19994 4613 ft 184 kts 235°
2026-04-21 17:38 43.42436 77.18578 4369 ft 173 kts 235°
2026-04-21 17:38 43.41793 77.17272 4166 ft 158 kts 235°
2026-04-21 17:38 43.41186 77.16041 3962 ft 155 kts 235°
2026-04-21 17:38 43.40582 77.14818 3761 ft 154 kts 234°
2026-04-21 17:39 43.39978 77.13598 3563 ft 154 kts 234°
2026-04-21 17:39 43.39379 77.12381 3370 ft 153 kts 235°
2026-04-21 17:39 43.38784 77.11171 3163 ft 152 kts 235°
2026-04-21 17:39 43.38191 77.09967 2933 ft 152 kts 235°
2026-04-21 17:40 43.37597 77.08767 2701 ft 152 kts 236°
2026-04-21 17:40 43.37006 77.07564 2510 ft 152 kts 236°
2026-04-21 17:40 43.36414 77.06363 2303 ft 151 kts 234°
2026-04-21 17:40 43.35863 77.05254 2226 ft 119 kts 237°
2026-04-21 17:41 43.35493 77.04510 2227 ft 69 kts 236°
2026-04-21 17:41 43.35303 77.04127 2225 ft 39 kts 236°
2026-04-21 17:41 43.35156 77.03833 2224 ft 36 kts 237°
2026-04-21 17:41 43.35023 77.03563 2226 ft 30 kts 237°
2026-04-21 17:42 43.34919 77.03349 2226 ft 19 kts 236°
2026-04-21 17:42 43.34861 77.03230 2222 ft 12 kts 237°
2026-04-21 17:42 43.34824 77.03131 2225 ft 11 kts 246°
2026-04-21 17:42 43.34799 77.03036 2224 ft 15 kts 255°
2026-04-21 17:43 43.34781 77.02846 2227 ft 21 kts 266°
2026-04-21 17:43 43.34775 77.02640 2227 ft 22 kts 266°
2026-04-21 17:43 43.34775 77.02431 2229 ft 22 kts 274°
2026-04-21 17:43 43.34786 77.02216 2226 ft 21 kts 273°
2026-04-21 17:44 43.34795 77.02033 2228 ft 17 kts 274°
2026-04-21 17:44 43.34803 77.01868 2228 ft 18 kts 274°
2026-04-21 17:44 43.34810 77.01709 2225 ft 13 kts 273°
2026-04-21 17:44 43.34814 77.01616 2224 ft 7 kts 274°
2026-04-21 17:45 43.34817 77.01553 2225 ft 6 kts 275°
2026-04-21 17:45 43.34809 77.01508 2224 ft 4 kts 239°
2026-04-21 17:45 43.34779 77.01480 2225 ft 8 kts 202°
2026-04-21 17:45 43.34738 77.01445 2228 ft 6 kts 225°
2026-04-21 17:46 43.34716 77.01402 2224 ft 5 kts 239°
2026-04-21 17:46 43.34703 77.01369 2225 ft 3 kts 243°
2026-04-21 17:46 43.34695 77.01347 2225 ft 2 kts 244°
2026-04-21 17:46 43.34690 77.01334 2226 ft 3 kts 244°
2026-04-21 17:47 43.34681 77.01306 2225 ft 0 kts 246°